Manuel Rodriguez

Olheiro-Chefe - Chiapas
3 Fev 2028
Quinta-feira
Processo

Personalidade

Adaptabilidade (17) Ambição (5) Controvérsia (16) Lealdade (10) Pressão (17) Profissionalismo (9) Espírito Esportivo (11) Temperamento (15)

Perfil

Estilo de Treinamento Democrático
Licença Nacional B
Determinação 5
Gestão de Pessoas 10
Motivação 8
Disciplina 7
Satisfação no Trabalho
100%
Fadiga
0%
Função Olheiro-Chefe
Salário 19.8K p/s
Contrato 14.03.2029

Desempenho

Comportamento Bom
Eficácia do Treinamento
34%
Desenvolvimento do Jogador
30%
Prevenção de Lesões
40%
Implementação Tática
45%

Eventos Recentes

Participou de uma reunião de recrutamento agora
Participou de uma reunião de recrutamento 7d atrás
Recomendou um alvo de transferência 7d atrás
Recomendou um alvo de transferência 7d atrás
Recomendou um alvo de transferência 14d atrás
Participando de desenvolvimento profissional 14d atrás
Participando de desenvolvimento profissional 14d atrás
Participando de desenvolvimento profissional 14d atrás

Monitorando agora

71
Jogador Clube Status Habilidade Confiança Observado Última observação Último voto
Teun Wilke Braams Guadalajara Ativo 120 / 101 58% 1 24.01.2028 Aprovar
Derensili Sanches Fernandes Huddersfield Town Ativo 136 / 121 40% 1 05.06.2027 -
Callum O'Hare Sheffield United Ativo 135 / 143 40% 1 05.06.2027 -
Armando Dobra Chesterfield Ativo 102 / 123 40% 1 31.05.2027 Mais informações
Tyler Goodrham Oxford United Ativo 121 / 138 40% 1 31.05.2027 Mais informações
Ilyas Ansah Hull City Ativo 112 / 136 40% 1 25.01.2027 -
Andrés Dieppa Metalurh Zaporizhzhia Ativo 76 / 81 40% 1 25.01.2027 -
Dion Beljo Standard Liege Ativo 131 / 132 66% 1 11.01.2027 Aprovar
Joe Gelhardt Hull City Ativo 143 / 141 40% 2 01.01.2027 -
Jhojan Julio Queretaro Ativo 122 / 117 40% 2 31.12.2026 -
Will Lankshear Middlesbrough Ativo 109 / 126 40% 3 29.12.2026 -
Romelu Castagne KV Oostende Ativo 125 / 126 40% 3 29.12.2026 -
Patson Daka Leicester City Ativo 123 / 141 40% 1 28.12.2026 -
Jacques Siwe Rubin Ativo 122 / 122 40% 1 27.12.2026 -
Manuel Ospina Cortulua Ativo 109 / 112 40% 3 25.12.2026 -
Antony Alonso Deportivo Riestra Ativo 137 / 132 40% 1 25.12.2026 -
Enzo Avaro Odd Ativo 130 / 103 40% 4 23.12.2026 -
Rodrigo Bogarín Barracas Central Ativo 103 / 132 40% 3 21.12.2026 -
Cho Gue-Sung FC Midtjylland Ativo 136 / 123 40% 1 20.12.2026 -
Jonás Luna Santa Clara Ativo 130 / 139 40% 4 18.12.2026 -
Martin Sekulić Ural Ativo 126 / 94 40% 1 18.12.2026 -
Tom Cannon Sheffield United Ativo 114 / 117 40% 1 18.12.2026 -
Dom Ballard Leyton Orient Ativo 116 / 140 40% 4 16.12.2026 -
Nicolás Cordero Aldosivi Ativo 132 / 118 40% 2 15.12.2026 -
Duk Atlas Ativo 122 / 122 40% 1 15.12.2026 -
Alexander Díaz Deportivo Riestra Ativo 136 / 104 40% 6 14.12.2026 -
Tyrese Campbell Sheffield United Ativo 132 / 122 40% 1 14.12.2026 -
Santiago Rodríguez Gimnasia y Esgrima Ativo 126 / 115 40% 2 12.12.2026 -
Juan Rocca Gimnasia y Tiro Ativo 101 / 102 40% 1 10.12.2026 -
Tomás González Piast Ativo 133 / 101 40% 3 05.12.2026 -
Ammar Ramadan DAC Dunajska Streda Ativo 119 / 138 40% 2 05.12.2026 -
Luca Martínez Dupuy Godoy Cruz Ativo 129 / 112 40% 1 04.12.2026 -
Ekain Orobengoa Real Sociedad Ativo 93 / 102 40% 1 04.12.2026 -
Yousef Salech Cardiff City Ativo 112 / 119 40% 1 30.11.2026 -
Juan Cruz Martins Jihlava Ativo 97 / 104 40% 1 27.11.2026 -
Mauro Valiente Estudiantes Ativo 104 / 116 40% 1 26.11.2026 -
Adolfo Muñoz Ruch Ativo 103 / 131 40% 1 23.11.2026 -
Niall Ennis Blackpool Ativo 116 / 128 40% 1 21.11.2026 -
Sebastián Cocimano Nueva Chicago Ativo 106 / 99 40% 1 21.11.2026 -
Cameron Archer Southampton Ativo 125 / 114 40% 1 18.11.2026 -
Adnan Courtois KV Oostende Ativo 129 / 118 40% 2 17.11.2026 -
Ismael Díaz Leon Ativo 114 / 125 40% 2 17.11.2026 -
Federico Viñas Toluca Ativo 139 / 136 40% 1 15.11.2026 -
Aune Heggebø West Bromwich Albion Ativo 142 / 116 40% 1 15.11.2026 -
Agustín Módica Gimnasia y Esgrima Ativo 128 / 118 40% 2 13.11.2026 -
Axel Pérez NK Domzale Ativo 114 / 122 40% 1 13.11.2026 -
Zian Flemming Ipswich Town Ativo 135 / 147 40% 2 10.11.2026 -
Lorent Tolaj Plymouth Argyle Ativo 107 / 110 40% 1 10.11.2026 -
Jonás Acevedo Instituto Ativo 126 / 125 40% 3 09.11.2026 -
Sead Hakšabanović Malmo FF Ativo 103 / 107 40% 1 01.11.2026 -
Tomás Fernández Aldosivi Ativo 105 / 126 40% 1 29.10.2026 -
Luis Vázquez Birmingham Ativo 137 / 122 40% 1 28.10.2026 -
Yeison Moreno Hajduk Split Ativo 123 / 125 40% 1 26.10.2026 -
Alejo Cruz Juventud Ativo 135 / 119 40% 1 25.10.2026 -
Ramiro Ruiz Rodríguez Atlético Tucumán Ativo 130 / 122 40% 2 24.10.2026 -
Luciano Cosentino Wanderers Ativo 124 / 138 40% 1 23.10.2026 -
Lucas Carrizo Plaza Colonia Ativo 100 / 109 40% 1 21.10.2026 -
Gabriel Jesus Barcelona Ativo 145 / 168 40% 2 20.10.2026 -
Sota Kitano Luzern Ativo 125 / 113 40% 1 20.10.2026 -
Peter Christiansen Viking Ativo 112 / 116 40% 1 19.10.2026 -
Leandro Suhr Boston River Ativo 111 / 104 40% 1 15.10.2026 -
Misael Sosa Godoy Cruz Ativo 110 / 124 40% 1 14.10.2026 -
Gianluca Pugliese Güemes Ativo 96 / 129 40% 1 13.10.2026 -
Lucas Varaldo Central Córdoba SdE Ativo 105 / 115 40% 1 12.10.2026 -
Santiago Sala Güemes Ativo 97 / 95 40% 1 07.10.2026 -
Agustín Gallo Tristán Suárez Ativo 106 / 123 40% 1 06.10.2026 -
Luca Franco Arsenal Ativo 96 / 100 40% 1 06.10.2026 -
Facundo Batista Penarol Ativo 127 / 134 40% 1 05.10.2026 -
Santiago Toloza O'Higgins Ativo 107 / 117 40% 1 09.09.2026 -
Ezequiel Cañete Huachipato Ativo 129 / 111 40% 1 08.09.2026 -
Marcos Camarda Santiago Wanderers Ativo 112 / 106 40% 1 03.08.2026 -